Regional Weather Roundup
Issued by NWS Northern Indiana

Home | Current Version | Previous Version | Graphics & Text | Print | Product List | Glossary On
Versions: 1 2 3 4 5 6 7 8 9 10 11 12 13 14 15 16 17 18 19 20 21 22 23 24 25 26 27 28 29 30 31 32 33 34 35 36 37 38 39 40 41 42 43 44 45 46 47 48 49 50
000
ASUS43 KIWX 070800
RWRIWX

KIWX WEATHER ROUNDUP
NATIONAL WEATHER SERVICE NORTHERN INDIANA
300 AM EST WED DEC 07 2016

NOTE: "FAIR" INDICATES FEW OR NO CLOUDS BELOW 12,000 FEET WITH NO
SIGNIFICANT WEATHER AND/OR OBSTRUCTIONS TO VISIBILITY.

* THESE STATIONS ARE NOT UNDER NWS QUALITY CONTROL. THEY ALSO MAY NOT
  REPORT WEATHER SUCH AS PRECIPITATION OR FOG.

INZ001>027-070900-
NORTHERN INDIANA

CITY           SKY/WX    TMP DP  RH WIND       PRES   REMARKS
SOUTH BEND     MOCLDY    27  20  75 W18       30.00R WCI  14
GOSHEN         PTCLDY    27  19  72 W16       30.00S WCI  15
MONTICELLO*    PTCLDY    29  18  65 W12       30.05R WCI  19
WARSAW*        PTCLDY    28  19  69 W17       30.01S WCI  16
ANGOLA*        CLOUDY    28  23  80 W12       29.97R WCI  18
FORT WAYNE     PTCLDY    28  21  75 W13       30.02R WCI  17
PERU/GRISSOM   PTCLDY    28  21  75 W10       30.02F WCI  19

$$
INZ028>050-070900-
CENTRAL INDIANA

CITY           SKY/WX    TMP DP  RH WIND       PRES   REMARKS
LAFAYETTE      PTCLDY    28  22  78 W10       30.08R WCI  19
KOKOMO*        CLEAR     28  22  78 W12       30.05S WCI  18
MUNCIE*        CLEAR     30  22  72 W10       30.05R WCI  21
INDIANAPOLIS   CLEAR     27  22  81 W6        30.07R WCI  20

$$
MIZ043>046-050>051-056>058-064>065-071>073-077>080-070900-
SOUTHWEST LOWER MICHIGAN

CITY           SKY/WX    TMP DP  RH WIND       PRES   REMARKS
BATTLE CREEK   CLOUDY    31  24  75 W13       29.93R WCI  21
BENTON HARBOR  MOCLDY    32  22  66 W18       29.97R WCI  20
COLDWATER*     CLOUDY    31  23  73 W21       29.96R WCI  18
HILLSDALE*     CLOUDY    30  23  74 W13G21    29.92R WCI  20
HOLLAND        CLOUDY    33  24  69 W16G28    29.92R WCI  23
GRAND RAPIDS   CLOUDY    31  22  69 W14       29.91R WCI  21
KALAMAZOO      CLOUDY    32  22  66 SW13      29.94R WCI  22
STURGIS*       CLOUDY    30  23  75 W14G25    29.96R WCI  19
THREE RIVERS*  CLOUDY    31  23  72 W9        29.97R WCI  23

$$
OHZ001>008-015>018-024>025-070900-
NORTHWEST OHIO

CITY           SKY/WX    TMP DP  RH WIND       PRES   REMARKS
DEFIANCE       CLEAR     31  22  69 W7G18     30.00R WCI  24
FINDLAY        PTCLDY    30  24  78 W14       29.99R WCI  19
TOLEDO EXPRESS PTCLDY    30  27  88 SW14      29.96R WCI  19
TOLEDO METCALF PTCLDY    32  27  81 W17G24    29.98R WCI  21
LIMA           PTCLDY    30  26  85 W20G25    30.01R WCI  17

$$
AND FOR LAKE MICHIGAN COASTAL AND OPEN LAKE BUOY OBSERVATIONS

STATION/POSITION TEMP    WIND        PRES    VSBY  WAVE
                 AIR SEA DIR/SP/G                  HT/PER
                 (F)     (DEG/KT/KT) (MB)    (MI)  (FT/S)
CALUMET HARBOR    27     240/  7/ 13 1015.8R
MICHIGAN CITY     30     240/ 29/ 33   N/A
BURNS HARBOR      31     270/ 24/ 30 1016.9R
SAINT JOSEPH      34     250/ 22     1015.6

$$
&&



USA.gov is the U.S. government's official web portal to all federal, state and local government web resources and services.